Weather History for Gage, OK

Change the Weather History Date:

Wednesday, June 26, 2013

  Actual Average Record
Temperature  
Mean Temperature 85 °F -  
Max Temperature 100 °F 90 °F 113 °F (2011)
Min Temperature 70 °F 65 °F 47 °F (1958)
Cooling Degree Days 20    
Growing Degree Days 35 (Base 50)    
Moisture  
Dew Point 66 °F    
Average Humidity 50    
Maximum Humidity 81    
Minimum Humidity 29    
Precipitation  
Precipitation 0.00 in - - ()
Sea Level Pressure  
Sea Level Pressure 29.76 in    
Wind  
Wind Speed 10 mph (SSE)    
Max Wind Speed 17 mph    
Max Gust Speed 16 mph    
Visibility 10 miles    
Events      
Averages and records for this station are not official NWS values.
T = Trace of Precipitation, MM = Missing Value Source: NWS Daily Summary

Daily Weather History Graph

Daily Weather History Graph

Search for Another Location

Airport:

Trip Planner

Search our weather history database for the weather conditions in past years. The results will help you decide how hot, cold, wet, or windy it might be!

Date:

Astronomy

Jun. 26, 2013 Rise Set
Actual Time 6:23 AM CDT 9:00 PM CDT
Civil Twilight 5:52 AM CDT 9:31 PM CDT
Nautical Twilight 5:15 AM CDT 10:08 PM CDT
Astronomical Twilight 4:32 AM CDT 10:51 PM CDT
Moon 11:32 PM CDT (6/26) 10:10 AM CDT (6/26)
Length of Visible Light 15h 38m
Length of Day
14h 37m
Waning Gibbous, 85% of the Moon is Illuminated
Jun 26
Waning Gibbous
Jun 29
Last Quarter
Jul 8
New
Jul 15
First Quarter
Jul 22
Full

Hourly Weather History & Observations

Time (CDT) Temp. Heat Index Dew Point Humidity Pressure Visibility Wind Dir Wind Speed Gust Speed Precip Events Conditions
12:53 AM 84.9 °F 86.6 °F 64.9 °F 51% 29.69 in 10.0 mi SSE 17.3 mph - N/A   Clear
1:53 AM 82.9 °F 84.6 °F 64.9 °F 54% 29.68 in 10.0 mi South 17.3 mph - N/A   Clear
2:53 AM 81.0 °F 82.5 °F 64.0 °F 56% 29.67 in 10.0 mi South 12.7 mph - N/A   Clear
3:53 AM 78.1 °F - 64.0 °F 62% 29.68 in 10.0 mi Calm Calm - N/A   Clear
4:53 AM 73.9 °F - 64.0 °F 71% 29.69 in 10.0 mi SSW 5.8 mph - N/A   Clear
5:53 AM 70.0 °F - 64.0 °F 81% 29.71 in 10.0 mi SSW 9.2 mph - N/A   Clear
6:53 AM 72.0 °F - 64.9 °F 78% 29.73 in 10.0 mi South 6.9 mph - N/A   Clear
7:53 AM 78.1 °F - 66.0 °F 66% 29.74 in 10.0 mi SSW 5.8 mph - N/A   Clear
8:53 AM 82.9 °F 85.0 °F 66.0 °F 56% 29.77 in 10.0 mi Calm Calm - N/A   Clear
9:53 AM 84.9 °F 87.1 °F 66.0 °F 53% 29.78 in 10.0 mi SW 3.5 mph - N/A   Clear
10:53 AM 88.0 °F 90.3 °F 66.0 °F 48% 29.79 in 10.0 mi ESE 3.5 mph - N/A   Clear
11:53 AM 91.0 °F 94.3 °F 66.9 °F 45% 29.79 in 10.0 mi Variable 6.9 mph - N/A   Clear
12:53 PM 93.0 °F 96.4 °F 66.9 °F 42% 29.80 in 10.0 mi Variable 6.9 mph - N/A   Clear
1:53 PM 96.1 °F 99.9 °F 66.9 °F 38% 29.78 in 10.0 mi ENE 8.1 mph - N/A   Clear
2:53 PM 99.0 °F 102.9 °F 66.0 °F 34% 29.78 in 10.0 mi SE 12.7 mph 16.1 mph N/A   Clear
3:53 PM 100.0 °F 103.0 °F 64.0 °F 31% 29.77 in 10.0 mi SE 10.4 mph - N/A   Clear
4:53 PM 100.9 °F 103.3 °F 63.0 °F 29% 29.77 in 10.0 mi ESE 9.2 mph - N/A   Clear
5:53 PM 100.0 °F 103.0 °F 64.0 °F 31% 29.77 in 10.0 mi SE 11.5 mph - N/A   Clear
6:53 PM 99.0 °F 101.7 °F 64.0 °F 32% 29.77 in 10.0 mi SE 10.4 mph - N/A   Clear
7:53 PM 95.0 °F 99.0 °F 66.9 °F 40% 29.77 in 10.0 mi SE 8.1 mph - N/A   Clear
8:53 PM 88.0 °F 91.4 °F 68.0 °F 51% 29.78 in 10.0 mi SE 9.2 mph - N/A   Clear
9:53 PM 89.1 °F 91.3 °F 66.0 °F 46% 29.79 in 10.0 mi SE 13.8 mph - N/A   Clear
10:53 PM 86.0 °F 88.2 °F 66.0 °F 51% 29.83 in 10.0 mi SE 10.4 mph - N/A   Clear
11:53 PM 82.9 °F 86.5 °F 69.1 °F 63% 29.85 in 10.0 mi SE 13.8 mph - N/A   Clear